Find Local Weather

World > North America > United States > Montana

Columbia Falls, Montana Regional Weather

Lat: 48.37N, Lon: 114.18W
Wx Zone: MTZ003
Warning FLW WEATHER ALERT - WINTER WEATHER ADVISORY (More Info. Click Here) Warning
Feedback
Expires:201901201100;;641850
ASUS45 KTFX 201010
RWRMT 
MONTANA REGIONAL WEATHER ROUNDUP
NATIONAL WEATHER SERVICE GREAT FALLS MT
300 AM MST SUN JAN 20 2019

NOTE: "FAIR" INDICATES FEW OR NO CLOUDS BELOW 12000 FEET WITH NO
SIGNIFICANT WEATHER AND/OR OBSTRUCTIONS TO VISIBILITY.


MTZ001>007-043-201100-
WEST OF THE DIVIDE
  
CITY           SKY/WX    TMP DP  RH WIND       PRES   REMARKS
KALISPELL      FAIR      25  23  92 CALM      30.06S FOG              
MISSOULA       FOG       28  27  96 CALM      30.08F VSB 1/4          
BUTTE          CLOUDY    31  27  85 SE3       30.05F                  
MULLAN PASS    CLOUDY    25  22  88 VRB3      30.00F                  
ANACONDA         N/A     34  28  80 S5        30.05F                  
DEER LODGE       N/A     34  32  93 S5        30.07S                  
LIBBY            N/A     30  30 100 CALM        N/A  VSB 0            
RONAN            N/A     34  28  80 SE5       30.06F                  
$$


SKY/WX - Weather  TMP - Temperature  DP - Dew Point  RH - Relative Humidity
WIND - Wind Direction/Speed PRES - Barometric Pressure